Overview Statistics Trail Chart Weather Telemetry Raw packets
 

This is the latest recevied weather packets stored in our database for station/object IZ7EXI-13. If no packets are shown the sender has not sent any weather packets the latest 10 day(s).

<< 30 31 32 33 34 35 36 >>
Time Temp. Humidity Pressure Rain* Wind** Luminosity Snow
1788091532 35° C 54% 1014 hPa - - - -
1788090632 35.56° C 51% 1014.1 hPa - - - -
1788089731 35° C 49% 1014.3 hPa - - - -
1788088831 35° C 45% 1014.4 hPa - - - -
1788087967 35° C 43% 1014.4 hPa - - - -
1788087931 35° C 43% 1014.4 hPa - - - -
1788087065 35° C 40% 1014.4 hPa - - - -
1788087031 35° C 40% 1014.4 hPa - - - -
1788086130 35.56° C 38% 1014.5 hPa - - - -
1788085230 34.44° C 38% 1014.7 hPa - - - -
1788084367 35° C 39% 1014.8 hPa - - - -
1788084330 35° C 39% 1014.8 hPa - - - -
1788083463 35° C 36% 1015 hPa - - - -
1788083430 35° C 36% 1015 hPa - - - -
1788082530 34.44° C 37% 1015.2 hPa - - - -
1788081666 33.89° C 37% 1015.4 hPa - - - -
1788081629 33.89° C 37% 1015.4 hPa - - - -
1788080759 33.89° C 34% 1015.6 hPa - - - -
1788080729 33.89° C 34% 1015.6 hPa - - - -
1788079829 33.33° C 31% 1015.6 hPa - - - -
1788078929 33.89° C 31% 1015.8 hPa - - - -
1788078042 33.33° C 31% 1015.7 hPa - - - -
1788077128 33.89° C 30% 1015.8 hPa - - - -
1788076228 33.33° C 31% 1015.7 hPa - - - -
1788075328 32.78° C 33% 1015.7 hPa - - - -

* Rain since midnight (hover to see other rain measurements)
** Current wind speed in m/s (hover to see current wind gust speed)